Regional Weather Roundup
Issued by NWS Newport/Morehead, NC

Current Version | Previous Version | Text Only | Print | Product List | Glossary On
Versions: 1 2 3 4 5 6 7 8 9 10 11 12 13 14 15 16 17 18 19 20 21 22 23 24 25 26 27 28 29 30 31 32 33 34 35 36 37 38 39 40 41 42 43 44 45 46 47 48 49 50
000 ASUS42 KMHX 010312 RWRMHX WEATHER ROUNDUP FOR EASTERN NORTH CAROLINA NATIONAL WEATHER SERVICE NEWPORT/MOREHEAD CITY NC 1000 PM EST SAT FEB 28 2015 NOTE: "FAIR" INDICATES FEW OR NO CLOUDS BELOW 12,000 FEET WITH NO SIGNIFICANT WEATHER AND/OR OBSTRUCTIONS TO VISIBILITY NCZ015>017-031-032-045>047-102-103-010400- NORTH COAST CITY SKY/WX TMP DP RH WIND PRES REMARKS EDENTON CLEAR 28 21 75 N6 30.76R ELIZABETH CITY CLEAR 29 20 69 N9 30.76S KITTY HAWK CLEAR 33 28 81 N5 30.71S MANTEO CLEAR 34 28 80 N10 30.73S $$ NCZ045>047-081-094-103-104-010400- CENTRAL COAST CITY SKY/WX TMP DP RH WIND PRES REMARKS FRISCO CLEAR 36 31 82 NE10G22 30.68F SWANQUARTER N/A N/A N/A N/A N9G15 30.65F $$ NCZ095-097-098-100-101-010400- SOUTHERN COAST CITY SKY/WX TMP DP RH WIND PRES REMARKS BEAUFORT MOCLDY 34 27 75 N13 30.68F CEDAR ISLAND N/A 34 N/A N/A N18 30.71F JACKSONVILLE CLOUDY 36 21 54 NE13 30.67F PINEY ISLAND N/A N/A N/A N/A MISG 30.69F WILMINGTON CLOUDY 39 22 50 NE9 30.65F $$ NCZ011>013-027>030-043-044-078>080-089-090>093-098-010400- COASTAL PLAIN CITY SKY/WX TMP DP RH WIND PRES REMARKS AHOSKIE CLEAR 28 15 58 NE3 30.76F CLINTON CLOUDY 37 25 62 NE3 30.70R ELIZABETHTOWN CLOUDY 38 23 55 CALM 30.67F GOLDSBORO PTCLDY 33 27 77 NE7 30.68F GREENVILLE CLEAR 30 21 69 NE5 30.72S HAVELOCK CLOUDY 35 23 61 NE12 30.70F KENANSVILLE PTCLDY 35 21 57 E5 30.70S KINSTON CLEAR 32 22 67 NE6 30.71F NEW BERN CLOUDY 34 21 59 NE10 30.72S RICHLANDS MOCLDY 34 19 55 NE13 30.69F ROCKY MOUNT MOCLDY 30 20 66 NE6 30.74R WASHINGTON CLEAR 28 21 73 NE8 30.73S WHITEVILLE CLOUDY 40 23 52 NE8 30.63F $$ AMZ130-135-150-152-154-156-158-170-250-252-270-ANZ085-086-088-633-658-670-010400- MARINE OBSERVATIONS STATION/POSITION TIME TEMP WIND PRES WAVE SWELL AIR SEA DIR/SP/G HT/PER HT/PER (UTC) (F) (DEG/KT/KT) (MB) (FT/S) (FT/S) CHESAPEAKE LIGHT 0200 30 50/ 13/ 14 1042.1 64 E VA BEACH 0250 43 60 50/ 12/ 16 1039.7 4/10 3/10 DUCK 0200 33 34 20/ 15/ 17 1039.8 2 E DUCK 0211 34 N/A 4/ 5 10 NE DUCK 0222 37 N/A 5/ 5 2/11 OREGON INLET 0200 35 38 360/ 12/ 14 1040.2 HATTERAS CG 0200 36 39 10/ 18/ 22 1039.6 CAPE LOOKOUT 0300 36 20/ 15/ 18 1038.1 BEAUFORT LAB 0200 35 41 20/ 13/ 18 1038.3 27 SE WRIGHTSVLE NOT AVBL 5 SE WRIGHTSVLE NOT AVBL 225 S CAPE HAT 0250 65 70 70/ 23/ 27 1034.2 12/ 9 41 SE CHARLESTON 0250 56 67 40/ 25/ 31 1033.5 11/ 8 7/16 $$

USA.gov is the U.S. government's official web portal to all federal, state and local government web resources and services.